This demonstration page uses our WeatherBlox Daily Observations layout. Learn more.

Hourly Observations for September 30, 2016

Temp ( °F °C ) Dew Point ( °F °C ) Humidity (%) Winds ( mph kmh ) Pressure ( in mb ) Visibility ( mi km ) Precip ( " mm )
12:15 am 00:15 Clear 46 8 41 5.1 82 82 Calm 30.36 1028 10 16.09344 0 0
12:35 am 00:35 Clear 46 7.8 41 5 83 83 Calm 30.36 1028 10 16.09344 0 0
12:55 am 00:55 Clear 45 7.2 41 4.8 85 85 Calm 30.36 1028 10 16.09344 0 0
1:15 am 01:15 Clear 43 6 39 4 87 87 SE 6 9 30.36 1028 10 16.09344 0 0
1:35 am 01:35 Clear 43 6 40 4.2 88 88 SE 6 9 30.36 1028 10 16.09344 0 0
1:55 am 01:55 Clear 43 5.9 40 4.4 90 90 Calm 30.33 1027 10 16.09344 0 0
2:15 am 02:15 Clear 44 6.7 41 4.8 88 88 SE 3 6 30.33 1027 10 16.09344 0 0
2:35 am 02:35 Clear 43 6.3 40 4.7 90 90 Calm 30.33 1027 10 16.09344 0 0
2:55 am 02:55 Clear 43 6.1 40 4.6 90 90 Calm 30.33 1027 10 16.09344 0 0
3:15 am 03:15 Clear 42 5.6 40 4.4 92 92 Calm 30.33 1027 10 16.09344 0 0
3:35 am 03:35 Clear 43 6.1 40 4.7 91 91 Calm 30.33 1027 10 16.09344 0 0
3:55 am 03:55 Clear 41 5.1 39 3.8 91 91 Calm 30.36 1028 10 16.09344 0 0
4:15 am 04:15 Clear 41 5 39 3.8 92 92 Calm 30.36 1028 10 16.09344 0 0
4:35 am 04:35 Clear 42 5.4 40 4.4 93 93 Calm 30.33 1027 10 16.09344 0 0
4:55 am 04:55 Clear 41 5.1 39 4 93 93 Calm 30.36 1028 10 16.09344 0 0
5:15 am 05:15 Clear 41 5.1 39 4.1 93 93 Calm 30.36 1028 10 16.09344 0 0
5:35 am 05:35 Clear 40 4.4 38 3.3 93 93 Calm 30.36 1028 10 16.09344 0 0
5:55 am 05:55 Clear 40 4.6 38 3.3 91 91 Calm 30.36 1028 10 16.09344 0 0
6:15 am 06:15 Clear 41 5.1 39 4 93 93 Calm 30.36 1028 10 16.09344 0 0
6:35 am 06:35 Clear 39 3.9 37 2.6 91 91 Calm 30.36 1028 10 16.09344 0 0
6:55 am 06:55 Clear 40 4.7 39 3.9 95 95 SSE 3 6 30.36 1028 10 16.09344 0 0
7:15 am 07:15 Clear 40 4.5 39 3.7 95 95 Calm 30.36 1028 7 11.265408 0 0
7:35 am 07:35 Sunny with Mist and Fog 40 4.4 38 3.6 95 95 SE 3 6 30.36 1028 3 4.828032 0 0
7:55 am 07:55 Sunny 41 5 40 4.4 96 96 Calm 30.36 1028 10 16.09344 0 0
8:15 am 08:15 Sunny 42 5.8 41 5.1 95 95 ESE 3 6 30.33 1027 10 16.09344 0 0
8:35 am 08:35 Sunny 45 7.4 44 6.8 96 96 Calm 30.33 1027 10 16.09344 0 0
8:55 am 08:55 Sunny 49 9.6 47 8.4 92 92 Calm 30.27 1025 10 16.09344 0 0
9:15 am 09:15 Sunny 52 11.1 47 8.6 85 85 Calm 30.3 1026 10 16.09344 0 0
9:35 am 09:35 Sunny 55 12.5 49 9.2 80 80 S 5 7 30.27 1025 10 16.09344 0 0
9:55 am 09:55 Sunny 58 14.2 48 9 71 71 SSE 7 11 30.27 1025 10 16.09344 0 0
10:15 am 10:15 Sunny 59 15.2 48 8.7 65 65 SE 8 13 30.21 1023 10 16.09344 0 0
10:35 am 10:35 Sunny 60 15.8 47 8.4 62 62 SSE 10 17 30.21 1023 10 16.09344 0 0
10:55 am 10:55 Sunny 62 16.5 46 8 57 57 SSE 9 15 30.21 1023 10 16.09344 0 0
11:15 am 11:15 Sunny 62 16.5 46 7.8 57 57 SSE 8 13 30.21 1023 10 16.09344 0 0
11:35 am 11:35 Sunny 63 17.3 46 7.6 53 53 SE 12 19 30.21 1023 7 11.265408 0 0
11:55 am 11:55 Sunny 64 17.6 45 7.3 51 51 S 10 17 30.21 1023 10 16.09344 0 0
12:15 pm 12:15 Sunny 64 18 44 6.9 48 48 S 7 11 30.18 1022 10 16.09344 0 0
12:35 pm 12:35 Sunny 64 17.9 44 6.7 48 48 S 6 9 30.18 1022 10 16.09344 0 0
12:55 pm 12:55 Sunny 65 18.3 45 7 48 48 S 7 11 30.15 1021 10 16.09344 0 0
1:15 pm 13:15 Sunny 65 18.2 44 6.7 47 47 SSE 7 11 30.15 1021 10 16.09344 0 0
1:35 pm 13:35 Sunny 67 19.4 44 6.7 44 44 SSE 7 11 30.15 1021 10 16.09344 0 0
1:55 pm 13:55 Sunny 67 19.3 44 6.4 43 43 SSE 8 13 30.12 1020 10 16.09344 0 0
2:15 pm 14:15 Sunny 69 20.4 42 5.5 38 38 S 3 6 30.12 1020 10 16.09344 0 0
2:35 pm 14:35 Sunny 69 20.7 43 6.2 39 39 ESE 9 15 30.12 1020 10 16.09344 0 0
2:55 pm 14:55 Sunny 69 20.5 44 6.5 40 40 SE 12 19 30.09 1019 10 16.09344 0 0
3:15 pm 15:15 Sunny 69 20.7 44 6.5 40 40 S 7 11 30.09 1019 10 16.09344 0 0
3:35 pm 15:35 Sunny 69 20.5 43 6.3 40 40 S 9 15 30.09 1019 10 16.09344 0 0
3:55 pm 15:55 Sunny 68 19.9 43 6.2 41 41 SSE 10 17 30.09 1019 10 16.09344 0 0
4:15 pm 16:15 Sunny 68 20.1 43 6.3 41 41 SE 8 13 30.09 1019 10 16.09344 0 0
4:35 pm 16:35 Sunny 70 21.1 42 5.4 36 36 ESE 9 15 30.03 1017 10 16.09344 0 0
4:55 pm 16:55 Sunny 70 21.1 42 5.7 37 37 SE 10 17 30.03 1017 10 16.09344 0 0
5:15 pm 17:15 Sunny 69 20.8 42 5.6 37 37 SE 9 15 30.03 1017 10 16.09344 0 0
5:35 pm 17:35 Sunny 68 20.2 43 5.9 39 39 SE 8 13 30.06 1018 10 16.09344 0 0
5:55 pm 17:55 Sunny 68 19.8 42 5.8 40 40 SE 7 11 30.06 1018 10 16.09344 0 0
6:15 pm 18:15 Sunny 67 19.4 43 6.1 42 42 SSE 7 11 30.06 1018 10 16.09344 0 0
6:35 pm 18:35 Sunny 65 18.6 43 6 44 44 S 7 11 30.06 1018 10 16.09344 0 0
7:15 pm 19:15 Sunny 61 16.3 44 6.7 53 53 SSE 5 7 30.09 1019 10 16.09344 0 0
7:35 pm 19:35 Clear 60 15.3 44 6.7 57 57 SE 5 7 30.09 1019 10 16.09344 0 0
7:55 pm 19:55 Clear 59 14.8 44 6.8 59 59 SSE 5 7 30.09 1019 10 16.09344 0 0
8:15 pm 20:15 Clear 59 14.8 44 6.8 59 59 SSE 3 6 30.09 1019 10 16.09344 0 0
8:35 pm 20:35 Clear 57 13.9 44 6.7 62 62 SSE 5 7 30.09 1019 10 16.09344 0 0
8:55 pm 20:55 Clear 57 14.1 45 7 63 63 SE 3 6 30.09 1019 10 16.09344 0 0
9:15 pm 21:15 Clear 56 13.5 45 7.1 65 65 Calm 30.12 1020 10 16.09344 0 0
9:35 pm 21:35 Clear 55 12.6 45 7 69 69 Calm 30.12 1020 10 16.09344 0 0
9:55 pm 21:55 Clear 55 12.6 44 6.8 68 68 Calm 30.12 1020 10 16.09344 0 0
10:15 pm 22:15 Clear 54 12 44 6.7 70 70 SE 3 6 30.12 1020 10 16.09344 0 0
10:35 pm 22:35 Clear 53 11.9 44 6.6 70 70 SE 6 9 30.12 1020 10 16.09344 0 0
10:55 pm 22:55 Clear 53 11.9 44 6.7 71 71 SE 6 9 30.12 1020 10 16.09344 0 0
11:15 pm 23:15 Clear 52 11.2 44 6.6 74 74 Calm 30.12 1020 10 16.09344 0 0
11:35 pm 23:35 Clear 54 12 44 6.6 70 70 Calm 30.12 1020 10 16.09344 0 0
11:55 pm 23:55 Clear 53 11.8 44 6.7 71 71 Calm 30.12 1020 10 16.09344 0 0

Powered by AerisWeather